Theta_e
311 311 311 311 311 311 312 312 313 313 313 313 313 312 312 312 314 316 318 320 323 325 325 326 328 332 337 338 338 338 341 340 340 340 338 341 342 344 344 343 341 341 342 343 342
311 311 311 311 311 312 313 313 314 314 314 314 314 313 313 313 315 318 319 321 324 324 329 327 331 331 335 336 338 340 341 340 340 340 340 340 341 344 344 344 343 342 343 343 342
311 311 311 311 311 312 313 314 314 314 315 315 315 314 314 314 320 322 321 325 326 328 327 327 330 334 334 338 339 339 342 341 340 340 340 341 341 342 343 344 341 342 345 344 342
311 311 311 311 311 312 313 314 314 315 315 315 315 315 314 316 328 323 325 325 325 326 326 326 327 331 337 340 339 341 339 339 340 340 341 341 341 343 343 343 344 343 344 344 342
312 311 311 311 311 312 313 314 315 315 315 315 316 316 316 323 328 322 324 326 323 325 327 329 330 333 338 338 339 341 340 340 340 340 340 341 342 342 342 343 342 342 344 343 342
312 312 311 311 311 312 313 315 315 315 315 316 317 317 322 329 326 322 321 322 323 324 326 327 330 332 336 337 339 339 339 340 339 341 341 342 342 343 342 343 342 343 342 341 341
313 312 312 312 311 312 313 315 315 316 316 316 317 319 324 326 327 328 328 321 323 325 326 326 329 333 336 337 339 339 341 339 340 342 343 343 344 346 342 342 342 343 341 340 340
314 313 312 312 311 312 313 315 315 316 316 317 317 319 327 325 324 327 326 323 324 325 325 326 327 332 335 338 338 338 341 340 340 340 342 344 340 341 343 342 342 342 341 339 338
315 314 312 312 312 312 313 314 316 316 317 317 318 322 326 323 325 326 325 325 325 325 325 327 331 334 336 337 337 338 336 335 336 337 341 345 341 346 345 342 342 342 341 339 337
315 315 313 312 312 312 313 314 316 317 317 317 319 324 322 325 325 325 324 324 324 324 325 332 334 335 335 334 332 330 332 333 335 338 340 342 345 343 345 343 343 342 340 338 336
316 315 314 312 312 312 313 315 320 324 319 324 323 325 324 324 325 325 325 325 326 328 330 331 333 333 331 330 331 330 331 333 334 336 338 339 340 340 342 345 343 342 341 337 335
316 316 314 312 312 312 313 318 322 322 325 324 324 323 323 324 325 327 325 327 329 332 330 330 331 330 329 328 329 330 331 332 334 338 339 339 341 340 340 342 344 343 342 339 336
317 317 315 312 312 313 314 317 320 320 326 324 323 324 325 324 326 326 326 327 330 333 330 330 330 329 329 329 329 330 330 331 333 339 339 341 341 337 342 343 344 343 343 342 338
319 319 315 313 314 314 317 317 321 319 329 326 325 325 325 325 326 326 325 327 329 330 330 330 330 329 329 329 329 330 329 330 334 340 335 341 338 337 339 342 343 343 343 343 341
320 320 315 313 316 318 322 320 321 322 330 329 326 323 323 325 326 326 325 326 328 330 330 330 330 330 329 329 329 329 330 333 334 337 338 336 342 337 341 337 338 340 343 342 343
321 321 314 313 317 320 319 319 322 328 331 331 330 329 326 324 324 326 325 325 327 328 329 330 328 328 329 329 328 329 333 335 336 335 336 336 338 335 337 339 337 336 339 341 341
322 319 314 314 319 316 317 323 328 328 327 332 332 333 330 326 324 324 327 328 328 329 330 330 329 328 327 328 330 334 335 335 333 333 337 338 336 335 337 335 335 336 336 339 340
322 317 314 314 317 316 322 329 327 326 331 332 332 333 333 334 331 330 328 328 329 329 330 329 330 329 330 331 332 335 336 334 336 335 335 334 336 337 333 333 335 335 336 335 335
321 317 314 314 316 316 326 328 325 328 331 332 332 333 333 334 333 334 332 330 329 330 330 330 329 330 332 333 334 335 335 334 335 333 334 332 333 332 334 333 335 335 334 334 334
321 316 319 313 315 318 328 326 327 328 330 331 331 332 333 334 334 334 334 334 332 332 329 331 331 332 334 333 331 333 331 333 333 335 335 332 333 333 332 332 332 334 334 333 333
321 323 318 314 314 325 328 327 326 325 327 330 330 329 333 335 334 334 333 334 334 334 333 334 335 333 334 334 334 333 332 333 333 334 334 332 330 330 331 331 332 331 331 333 332
322 325 315 315 326 327 327 327 324 325 329 329 331 332 335 334 337 336 334 335 334 334 336 336 338 337 335 332 329 330 332 332 333 333 332 331 333 330 330 329 329 329 331 332 331
329 323 316 320 326 327 327 326 325 326 327 328 331 335 335 336 338 335 335 334 333 335 336 336 338 337 336 332 330 331 332 331 332 335 332 333 333 331 328 328 328 329 330 329 327
331 323 320 323 325 328 327 326 326 325 326 328 332 335 336 337 337 337 336 335 332 333 328 332 338 337 336 334 332 333 331 331 333 335 332 331 333 330 327 328 327 328 326 324 321
339 339 332 322 327 330 333 331 330 329 333 333 336 336 337 338 337 338 336 336 334 330 333 337 339 335 334 331 332 332 330 329 330 331 334 332 331 327 326 327 327 325 324 323 320
340 342 336 335 335 336 330 334 333 331 331 331 335 331 335 338 337 338 337 336 336 334 336 336 340 337 335 332 333 332 330 330 331 330 329 327 328 324 322 321 322 322 322 321 319
334 339 339 334 337 337 335 335 335 336 333 333 334 335 336 336 335 334 334 335 337 337 339 339 338 337 335 333 332 335 333 332 331 329 328 328 326 322 321 319 318 318 318 318 318
Wind_Speed
12 11 9 6 2 1 3 3 3 4 4 4 5 7 9 12 14 15 12 7 11 11 9 8 6 5 2 1 2 2 5 5 5 3 9 7 6 3 1 4 5 3 1 3 21
13 11 9 7 2 1 2 3 3 3 4 4 5 7 10 12 13 13 11 10 11 10 10 11 8 7 2 1 1 3 3 5 5 4 1 7 8 6 5 6 8 6 4 12 21
13 11 9 7 2 1 2 2 2 3 3 4 5 7 11 12 7 8 13 10 8 10 8 9 7 6 3 1 1 2 7 3 3 1 4 6 9 8 10 7 7 8 9 15 19
14 11 9 7 3 2 3 3 2 3 3 3 5 8 11 15 9 8 13 11 9 9 10 8 8 7 4 1 1 3 1 1 1 4 7 10 9 11 13 8 2 5 10 17 20
14 11 9 7 3 2 3 3 2 2 3 3 5 9 13 8 3 13 15 13 9 9 8 7 5 4 4 3 1 4 2 3 3 7 8 7 12 15 13 10 5 6 12 16 18
14 11 9 7 3 2 4 3 2 2 2 3 5 10 9 10 7 12 14 15 11 7 6 5 3 3 3 4 5 2 3 7 6 6 6 10 11 5 12 11 10 12 14 16 18
15 12 9 7 3 3 5 4 3 2 1 2 5 10 6 3 8 12 13 15 11 7 3 7 5 6 4 1 2 3 8 6 10 8 6 9 12 15 14 13 14 15 15 16 18
16 13 9 7 3 3 5 4 3 2 1 2 5 6 3 8 6 9 15 13 11 7 4 3 5 5 6 1 4 7 4 8 3 7 3 9 11 4 14 15 16 15 16 16 18
17 14 10 7 3 4 5 5 3 2 1 3 5 4 6 8 5 9 13 10 11 8 4 2 5 5 4 7 9 7 8 8 3 8 4 12 13 7 6 13 16 16 17 17 17
17 15 11 7 3 3 5 5 3 2 2 2 3 4 4 6 7 11 12 13 9 11 6 7 7 8 6 8 8 12 12 7 6 5 10 12 18 8 8 12 16 16 17 18 18
17 15 12 7 3 4 5 4 2 2 8 5 4 6 8 6 8 8 14 12 10 11 10 11 9 10 8 7 10 12 12 11 9 2 7 13 15 14 10 14 16 18 20 20 18
17 15 12 7 3 5 8 4 2 1 4 10 9 8 6 6 9 10 12 13 12 12 5 7 12 8 7 6 9 10 10 10 6 3 8 12 16 15 11 15 17 19 21 21 19
17 15 12 6 3 6 11 7 5 4 6 4 8 9 9 11 14 18 18 15 13 16 15 16 13 2 8 13 8 14 16 10 11 2 11 10 18 12 4 9 12 16 20 21 21
17 15 10 4 2 7 6 8 6 7 5 6 6 6 9 10 14 11 19 13 11 15 18 11 10 9 8 14 15 13 13 10 7 7 12 3 14 16 4 9 9 13 16 20 20
17 15 7 4 4 5 6 4 6 5 4 4 6 2 5 19 21 15 16 16 14 13 10 17 15 10 12 16 15 16 11 9 9 11 11 18 7 9 4 9 4 5 13 16 22
16 14 5 4 7 8 5 3 4 6 2 5 3 4 8 14 18 12 11 14 11 14 11 18 16 8 13 17 14 11 9 7 9 11 13 5 5 11 10 8 8 6 6 9 12
16 11 4 7 6 8 3 6 6 5 3 4 1 3 4 6 11 13 16 15 14 13 17 18 18 17 10 14 10 9 11 12 10 9 9 4 5 9 9 7 9 8 5 3 7
16 7 5 11 8 7 7 6 5 2 1 2 2 2 4 2 6 6 12 15 20 18 16 15 12 13 9 10 11 4 7 8 18 15 16 6 5 4 5 7 6 4 3 4 5
12 4 6 11 11 7 9 8 1 2 2 2 3 4 4 3 4 4 11 16 11 11 17 14 12 2 3 4 6 4 8 6 11 17 10 5 2 8 1 4 4 4 2 3 5
6 3 3 10 12 7 7 4 1 0 3 3 3 2 3 1 5 3 3 3 5 5 7 5 11 3 6 6 3 6 3 7 7 9 12 6 7 6 12 12 11 5 3 2 4
3 4 3 8 12 6 8 3 3 2 4 4 3 5 4 5 7 7 3 3 2 2 5 3 4 4 5 7 7 4 7 3 4 6 9 9 6 8 11 11 12 13 10 3 4
2 3 4 11 9 5 6 2 1 3 3 6 5 6 6 3 7 5 3 0 5 5 4 2 3 6 4 3 2 3 4 3 6 6 4 6 4 9 11 12 13 13 10 4 2
2 2 7 7 7 7 3 4 4 5 4 4 5 5 3 4 4 4 3 2 5 4 5 2 3 7 10 4 2 2 2 3 4 5 12 8 4 9 16 14 14 12 10 8 6
2 3 5 2 1 5 4 8 9 6 11 8 5 5 6 7 5 3 3 3 4 6 4 4 3 6 9 5 5 4 4 4 4 7 6 2 9 15 13 14 12 9 7 7 7
2 3 1 7 7 3 2 2 8 5 5 7 5 11 7 5 6 7 4 6 4 9 2 3 5 5 1 1 3 3 3 1 1 3 5 10 6 10 11 9 9 6 4 3 4
5 4 0 2 2 5 2 1 5 5 5 6 10 8 8 9 7 9 6 5 3 6 3 2 4 5 5 5 4 1 2 2 2 5 2 3 7 7 6 9 10 8 6 3 4
7 5 3 4 2 5 1 2 4 5 4 6 8 9 9 4 3 3 4 3 2 3 5 4 3 4 2 1 3 5 4 2 4 5 6 6 5 7 7 7 7 7 6 4 4
Wind_Direction
5 1 4 8 22 106 144 147 151 154 157 162 171 168 172 178 178 182 200 195 191 179 169 176 176 195 212 45 11 338 216 139 121 170 111 149 191 172 193 160 193 178 101 142 165
3 4 2 2 11 128 152 149 145 149 146 155 162 165 170 176 181 210 205 195 188 195 172 168 178 175 192 155 140 275 279 72 39 65 126 171 227 178 213 199 208 183 151 149 164
1 2 2 3 359 159 162 156 146 143 138 149 157 164 167 168 180 196 197 180 167 170 187 186 186 205 254 250 124 93 15 89 125 249 286 217 210 201 226 230 236 215 187 170 175
2 359 0 1 355 196 180 170 161 144 137 145 157 160 165 163 179 178 176 168 159 154 172 179 193 221 264 116 89 267 146 206 143 223 244 238 222 212 229 262 154 220 195 184 187
1 359 358 357 344 213 193 181 164 148 138 141 150 155 161 191 112 176 186 192 179 166 186 198 212 278 330 6 204 254 176 228 238 252 249 233 234 241 233 225 219 197 186 190 193
359 1 357 351 338 227 205 193 179 157 135 140 146 159 168 205 165 176 196 205 192 184 203 221 304 316 315 353 303 360 285 262 251 237 230 228 234 236 237 203 197 186 189 195 196
360 359 357 345 332 232 209 201 192 174 148 157 153 169 205 108 187 189 204 204 185 185 222 226 259 278 333 42 321 291 269 245 232 223 234 233 247 232 245 202 201 196 196 198 199
357 356 356 342 327 234 213 203 204 212 229 177 164 170 193 187 178 186 189 181 186 197 187 205 244 260 267 167 229 260 234 266 127 224 222 215 292 66 201 205 213 206 202 201 199
353 353 351 343 322 233 213 207 207 232 183 152 155 180 165 189 166 175 167 170 177 186 193 238 185 247 218 244 244 192 312 296 254 216 218 222 289 59 190 215 226 216 210 206 205
350 350 348 341 305 226 211 208 219 239 191 145 200 216 203 178 174 179 175 168 168 175 175 199 218 244 228 252 336 340 329 316 265 151 221 240 257 243 209 222 232 224 219 215 213
348 348 343 335 297 207 200 190 236 218 214 239 176 246 148 154 165 174 177 167 163 193 220 203 239 243 336 332 299 312 316 295 309 200 255 264 270 279 235 229 237 229 221 219 217
346 344 337 328 272 202 192 210 266 64 261 233 240 238 200 175 179 176 175 190 204 222 211 209 241 287 330 295 291 295 299 296 280 254 235 283 278 287 262 241 237 234 227 222 217
344 342 333 318 242 201 201 205 195 336 257 179 214 227 215 209 210 186 183 209 220 228 223 259 282 318 281 287 253 308 307 298 287 156 240 268 270 267 226 247 235 236 233 225 221
341 339 329 317 154 186 205 218 248 302 252 133 195 213 217 215 222 210 206 218 220 237 237 260 281 277 263 268 301 299 319 299 265 244 298 242 295 303 307 266 237 243 233 230 225
339 338 318 211 178 165 209 215 280 173 233 125 140 195 221 215 216 205 210 216 254 235 237 249 246 234 281 276 297 285 308 284 262 265 314 262 251 307 157 285 359 282 242 235 228
337 334 301 213 194 191 207 249 162 231 153 142 143 201 199 207 225 214 201 221 262 270 245 268 280 273 257 275 289 280 253 232 244 260 269 10 300 307 7 8 325 354 325 232 233
334 324 254 185 189 201 237 161 227 260 130 136 52 245 222 163 216 222 217 217 235 224 237 237 238 244 261 261 234 232 259 274 290 283 284 35 297 326 6 8 341 331 341 207 197
332 310 217 193 182 177 165 224 249 75 207 96 317 168 205 223 190 223 244 241 225 253 268 263 248 220 206 246 300 238 302 290 292 312 322 323 291 52 354 330 333 345 326 178 174
332 284 199 189 187 187 205 227 276 173 16 298 206 251 148 162 301 252 229 256 268 223 246 259 244 126 238 232 256 140 257 6 291 278 261 309 111 243 189 28 333 329 291 186 179
348 143 175 191 187 178 230 273 230 241 321 259 288 309 300 316 278 252 244 58 270 287 261 284 266 164 142 189 148 279 28 275 252 283 302 334 259 10 14 5 358 328 291 207 185
105 171 244 180 170 207 227 183 240 218 267 280 294 294 280 306 282 276 274 98 8 301 264 211 259 158 225 219 303 213 233 224 306 306 306 304 20 29 18 1 348 336 343 301 198
98 197 179 159 202 228 233 222 24 274 232 247 280 276 276 311 293 270 288 144 9 307 278 73 282 256 300 70 353 307 12 328 284 281 297 291 19 48 24 10 360 351 6 52 93
351 80 160 160 213 210 168 240 241 256 249 242 241 241 219 270 266 252 276 76 69 22 2 39 205 263 184 149 129 214 241 293 286 270 266 298 100 60 22 14 21 18 46 69 90
295 161 160 196 3 309 214 255 263 231 262 237 256 229 223 238 211 273 251 144 114 62 14 291 274 283 302 1 339 290 313 319 278 275 339 18 333 29 15 14 24 37 55 86 106
314 61 21 193 191 237 249 318 288 239 229 222 219 234 232 261 239 230 244 159 140 174 200 299 265 261 283 245 224 320 313 331 41 2 320 11 16 15 13 13 23 29 43 64 71
346 335 89 106 146 231 161 248 312 295 251 246 252 292 246 253 295 311 271 254 208 171 164 194 224 255 225 190 310 220 126 141 118 13 16 345 77 7 20 20 23 21 22 48 91
342 330 302 128 188 256 45 3 327 318 263 282 300 285 230 217 302 347 289 294 284 189 170 219 194 266 257 196 264 196 61 61 121 49 338 356 26 351 12 13 14 13 14 21 18